QUETZSAT 1

Last updated on Thu Oct 30 2025 00:02:48 GMT+0000 (Coordinated Universal Time)

1 37826U 11054A 25302.46921207 -.00000232 00000+0 00000+0 0 9996 2 37826 0.0371 53.0793 0002332 150.9483 285.9619 1.00273157 47564
UTC large
Height (km)
Speed (km/s)
/
Latitude / Longitude
Inclination (degrees)
Orbital Period (minutes)
Azimuth
Elevation
Range (km)
Doppler Factor

Next 0 passes for location: London (51.5072 / 0.1276)

Sorry there are no passes over London.